Regional Weather Roundup
Issued by NWS Cleveland, OH

Home | Current Version | Previous Version | Graphics & Text | Print | Product List | Glossary On
Versions: 1 2 3 4 5 6 7 8 9 10 11 12 13 14 15 16 17 18 19 20 21 22 23 24 25 26 27 28 29 30 31 32 33 34 35 36 37 38 39 40 41 42 43 44 45 46 47 48 49 50
000
ASUS41 KCLE 290610
RWRCLE
OHIO REGIONAL WEATHER ROUNDUP
NATIONAL WEATHER SERVICE WILMINGTON, OH
200 AM EDT THU JUN 29 2017

NOTE: "FAIR" INDICATES FEW OR NO CLOUDS BELOW 12,000 FEET WITH NO
SIGNIFICANT WEATHER AND/OR OBSTRUCTIONS TO VISIBILITY.

OHZ001>008-015>018-024>027-034-035-043-044-290700-
   NORTHWEST OHIO

CITY           SKY/WX    TMP DP  RH WIND       PRES   REMARKS
DEFIANCE       FAIR      70  54  56 S13       29.93S
FINDLAY        FAIR      68  53  58 S13       29.95F
TOLEDO EXPRESS FAIR      70  55  59 S10G17    29.94S
TOLEDO EXEC    FAIR      70  55  59 S10       29.95R
LIMA           FAIR      68  55  63 S12       29.97F
$$

OHZ009>014-019>023-028>033-038-089-290700-
   NORTHEAST OHIO

CITY           SKY/WX    TMP DP  RH WIND       PRES   REMARKS
CLE-HOPKINS    CLOUDY    71  53  52 S12       30.01F
CLE-LAKEFRONT  FAIR      72  51  47 S13       29.98F
CUY CO. ARPT   NOT AVBL
LORAIN-ELYRIA  FAIR      67  50  54 S12       30.00F
ASHTABULA      MOCLDY    66  53  63 S7        30.05S
AKRON-CANTON   FAIR      65  52  62 S14       30.03F
WOOSTER        FAIR      63  53  70 S3        30.03F
MANSFIELD      FAIR      66  53  63 S12       30.02F
YOUNGSTOWN     CLOUDY    66  52  60 S7        30.06S
$$

OHZ042-051>053-060>062-070>072-077>081-290700-
  SOUTHWEST OHIO

CITY           SKY/WX    TMP DP  RH WIND       PRES   REMARKS
CINC-COVINGTON MOCLDY    65  57  75 S7        30.03F
CINC-LUNKEN    FAIR      60  58  92 CALM      30.04F
HAMILTON       FAIR      68  56  65 S3        30.02F
DAYTON         FAIR      69  54  58 S13       30.02F
WRIGHT-PAT AFB FAIR      64  56  74 SE5       30.01F
DAYTON GENERAL FAIR      64  55  72 S7        30.02F
WILMINGTON     FAIR      62  57  83 S6        30.04F
$$

OHZ036-037-039>041-045>050-054>059-063>069-073>076-082>088-290700-
  CENTRAL AND SOUTHEAST OHIO

CITY           SKY/WX    TMP DP  RH WIND       PRES   REMARKS
COLUMBUS       FAIR      66  55  67 S7        30.03F
OSU AIRPORT    FAIR      66  56  70 S10       30.02F
BOLTON FIELD   FAIR      62  55  79 S7        30.04F
RICKENBACK AFB FAIR      61  55  80 S3        30.04S
NEWARK         FAIR      58  54  86 CALM      30.04F
MARION         FAIR      66  53  63 S13       30.01F
LANCASTER      FAIR      57  54  89 CALM      30.05F
ZANESVILLE     FAIR      58  54  86 CALM      30.07F
NEW PHILLY     FAIR      60  56  86 SE6       30.06F
$$



USA.gov is the U.S. government's official web portal to all federal, state and local government web resources and services.